Regional Weather Roundup
Issued by NWS

Home | Current Version | Previous Version | Graphics & Text | Print | Product List | Glossary On
Versions: 1 2 3 4 5 6 7 8 9 10 11 12 13 14 15 16 17 18 19 20 21 22 23 24 25 26 27 28 29 30 31 32 33 34 35 36 37 38 39 40 41 42 43 44 45 46 47 48 49 50
000
ASUS43 KIND 251009
RWRIN

WEATHER ROUNDUP FOR INDIANA
NATIONAL WEATHER SERVICE INDIANAPOLIS IN
600 AM EDT SAT OCT 25 2014

NOTE: "FAIR" INDICATES FEW OR NO CLOUDS BELOW 12,000 FEET WITH NO
SIGNIFICANT WEATHER AND/OR OBSTRUCTIONS TO VISIBILITY.

* - STATION DOES NOT REPORT WEATHER SUCH AS PRECIPITATION OR FOG.

+ - STATION NOT QUALITY CONTROLLED BY THE NATIONAL WEATHER SERVICE.
    USE DATA WITH CAUTION...ESPECIALLY DEWPOINT AND RELATIVE
    HUMIDITY OBSERVATIONS.

INZ001>003-010>013-019-020-251100-
NORTHWEST INDIANA

CITY           SKY/WX    TMP DP  RH WIND       PRES   REMARKS
GARY /AIRPORT/ MOCLDY    55  52  88 W8        29.92R FOG
KNOX *+        PTCLDY    51  48  90 SW5       29.92R
LA PORTE +     MOCLDY    53  53 100 SW5       29.92R FOG
MICHIGAN CITY+ CLOUDY    54  52  94 CALM      29.92S
MONTICELLO +   MOCLDY    53  51  95 SW5       29.92R
RENSSELAER +   MOCLDY    54  52  94 W8        29.94R
VALPARAISO     CLOUDY    53  51  93 W6        29.92R FOG

$$

LMZ046-743>745-251100-
SOUTHERN LAKE MICHIGAN

STATION/POSITION TIME  TEMP WIND        PRES
                       AIR  DIR/SP/G
                 (UTC) (F)  (DEG/KT/KT) (MB)
MICHIGAN CITY    1000   56  210/ 12/ 14   N/A

$$

INZ004-005-014>016-021>024-251100-
NORTH CENTRAL INDIANA

CITY           SKY/WX    TMP DP  RH WIND       PRES   REMARKS
GOSHEN         CLOUDY    54  51  90 SW9       29.90S
LOGANSPORT +   PTCLDY    52  48  87 SW6       29.93R
PERU/GRISSOM   MOCLDY    53  53 100 SW7       29.92S
ROCHESTER +    CLEAR     55  52  88 CALM      29.92S
SOUTH BEND     MOCLDY    54  51  90 SW7       29.92R
WARSAW +       PTCLDY    54  52  94 SW5       29.91S

$$

INZ006>009-017-018-025>027-251100-
NORTHEAST INDIANA

CITY           SKY/WX    TMP DP  RH WIND       PRES   REMARKS
ANGOLA *+      CLOUDY    50  46  87 CALM      29.89R
AUBURN +       CLOUDY    54  50  87 SW7       29.91S
FORT WAYNE     CLOUDY    54  51  90 S9        29.92F
HUNTINGTON +   CLOUDY   N/A N/A N/A S5        29.91F

$$

INZ028-029-035-036-043>045-051>053-251100-
WEST CENTRAL INDIANA

CITY           SKY/WX    TMP DP  RH WIND       PRES   REMARKS
GREENCASTLE +  MOCLDY    55  50  82 S3        29.95F
LAFAYETTE      MOCLDY    53  51  93 W5        29.93S
TERRE HAUTE    MOCLDY    57  51  80 SW7       29.96S

$$

INZ030>032-037>040-046>048-054>057-064-065-251100-
CENTRAL INDIANA

CITY           SKY/WX    TMP DP  RH WIND       PRES   REMARKS
CP ATTERBURY + CLOUDY    46  45  93 SE3       29.98F FOG
FRANKFORT +    MOCLDY    55  55 100 S7        29.94S FOG
INDIANAPOLIS   CLOUDY    54  50  86 S7        29.95F
-EAGLE CREEK   CLOUDY    53  51  93 S6        29.94F
KOKOMO *+      MOCLDY    55  48  76 SW9       29.93S
MARION +       CLOUDY    53  50  90 S6        29.94S
MT COMFORT *+  MOCLDY    52  52 100 S8        29.96F
SHELBYVILLE    MOCLDY    53  49  86 S8        29.97S
ZIONSVILLE +   MOCLDY    55  49  82 S8        29.94F

$$

INZ033-034-041-042-049-050-058-059-251100-
EAST CENTRAL INDIANA

CITY           SKY/WX    TMP DP  RH WIND       PRES   REMARKS
MUNCIE         CLOUDY    55  50  83 S8        29.94F

$$

INZ060-061-067>069-081>083-085>088-251100-
SOUTHWEST INDIANA

CITY           SKY/WX    TMP DP  RH WIND       PRES   REMARKS
EVANSVILLE     CLOUDY    58  53  84 SW8       30.02R
HUNTINGBURG *+ CLOUDY    55  50  82 S5        30.03R
WASHINGTON +   CLOUDY    56  54  92 S3        29.98S

$$

INZ062-063-066-070>080-084-089>092-251100-
SOUTH CENTRAL AND SOUTHEAST INDIANA

CITY           SKY/WX    TMP DP  RH WIND       PRES   REMARKS
BEDFORD +      CLOUDY    54  50  87 S5        30.00S
BLOOMINGTON    MOCLDY    56  52  86 SW6       29.98F

$$




USA.gov is the U.S. government's official web portal to all federal, state and local government web resources and services.